Regional Weather Roundup
Issued by NWS

Home | Current Version | Previous Version | Graphics & Text | Print | Product List | Glossary On
Versions: 1 2 3 4 5 6 7 8 9 10 11 12 13 14 15 16 17 18 19 20 21 22 23 24 25 26 27 28 29 30 31 32 33 34 35 36 37 38 39 40 41 42 43 44 45 46 47 48 49 50
000
ASUS45 KCYS 141610
RWRWY

WYOMING REGIONAL WEATHER ROUNDUP
NATIONAL WEATHER SERVICE CHEYENNE WY
900 AM MST SUN FEB 14 2016

NOTE:  "FAIR" INDICATES FEW OR NO CLOUDS BELOW 12,000 FEET
WITH NO SIGNIFICANT WEATHER AND/OR OBSTRUCTIONS TO VISIBILITY.

WYZ001-141700-
YELLOWSTONE NATIONAL PARK

CITY           SKY/WX    TMP DP  RH WIND       PRES   REMARKS
LK YELLOWSTONE   N/A     24  19  81 W5        30.00R WCI  18
W YELLOWSTONE  NOT AVBL

$$
WYZ002>013-054>058-071-098>099-141700-
NORTHERN WYOMING

CITY           SKY/WX    TMP DP  RH WIND       PRES   REMARKS
JACKSON        CLOUDY    34  27  75 SW23G35   29.99F WCI  22
CODY           FAIR      41  21  45 W12G20    29.87S
GREYBULL       PTSUNNY   30  24  78 SE6       29.88R WCI  24
WORLAND        FAIR      32  24  72 CALM      29.88F
SHERIDAN       PTSUNNY   36  21  55 CALM      29.83S
BUFFALO        FAIR      37  21  52 N6        29.83S WCI  32
GILLETTE       CLOUDY    33  26  75 S5        29.82S WCI  29
HULETT         CLOUDY    34  27  75 SW5       29.82F WCI  30
NEWCASTLE      FAIR      28  23  80 CALM      29.85F

$$
WYZ014>020-022>026-101>103-141700-
CENTRAL WYOMING

CITY           SKY/WX    TMP DP  RH WIND       PRES   REMARKS
BIG PINEY      FAIR      24  20  84 CALM      30.07F
PINEDALE         N/A     27  25  93 MISG      30.08R
DUBOIS         CLOUDY    30  25  80 NW14      29.94S WCI  20
LANDER         FAIR      34  16  47 SE9       29.90F WCI  27
RIVERTON       FAIR      31  17  56 S9        29.92S WCI  23
CASPER         FAIR      36  19  50 W20       29.87R WCI  25
DOUGLAS        FAIR      41  22  46 W17       29.86R

$$
WYZ021-027>030-104>119-141700-
SOUTHERN WYOMING

CITY           SKY/WX    TMP DP  RH WIND       PRES   REMARKS
EVANSTON       CLOUDY    29  26  89 SW20      30.15F WCI  16
FORT BRIDGER   PTSUNNY   32  30  93 W26G36    30.16R WCI  18
ROCK SPRINGS   PTSUNNY   32  23  69 W38G47    30.04S WCI  16
DIXON          CLOUDY    32  20  62 SW15G23   30.11S WCI  21
RAWLINS        FAIR      31  21  66 SW35G40   29.99R WCI  15
SARATOGA       PTSUNNY   32  23  69 W25G33    30.05R WCI  19
LARAMIE        PTSUNNY   35  19  52 W29G45    29.94R WCI  22
CHEYENNE       PTSUNNY   43  16  33 NW26G39   29.89S
TORRINGTON     PTSUNNY   39  22  50 NW10      29.85S WCI  32
PINE BLUFFS    CLOUDY    36  27  69 SW8       29.91R WCI  29

$$



USA.gov is the U.S. government's official web portal to all federal, state and local government web resources and services.